RH
43 43 42 41 40 40 38 37 36 35 34 33 32 31 31 30 31 29 28 28 27 28 29 27 29 30 26 24 23 21 21 22 23 22 21 21 21 20 19 18 18 18 17 16 16 16 16 17 17 16 15 14 13 13 13 13 12 12 12 12 11 12 12 13 14 16 18 20 21 22 22 21 20 19 19 18 16 15 14 13 11 10 9 8 7 6
41 41 41 40 39 39 37 36 35 34 33 32 32 31 31 30 30 30 29 28 27 27 28 26 27 30 27 24 22 21 21 22 23 23 21 21 20 19 19 18 18 17 17 16 16 17 18 18 17 16 14 13 12 13 13 12 12 12 11 12 12 14 15 17 18 19 21 22 23 22 20 19 18 17 16 16 15 13 12 11 10 8 7 6 6 5
40 40 39 38 37 36 36 35 34 34 33 33 32 31 31 31 30 31 30 29 28 27 27 26 25 29 28 26 24 22 21 22 22 22 21 20 19 18 18 18 17 17 17 17 18 19 19 19 17 15 13 12 12 12 12 12 12 11 12 13 15 18 20 21 22 22 22 22 21 19 17 16 15 15 14 13 12 11 10 9 8 7 6 6 5 5
40 39 38 37 36 36 35 35 34 34 33 32 32 31 31 30 29 29 28 28 27 26 26 25 25 27 28 27 26 23 21 22 22 21 20 19 18 18 17 17 16 17 18 19 19 19 19 18 16 14 11 11 12 12 12 12 12 13 15 18 20 22 23 23 23 22 20 19 18 17 15 14 13 13 12 10 9 8 7 7 6 6 6 5 5 4
38 37 37 36 35 35 35 34 34 34 33 32 31 31 30 29 27 27 26 26 26 25 25 24 24 27 28 27 26 24 22 22 21 20 19 18 18 17 16 16 16 17 19 20 20 19 17 15 13 12 11 11 12 13 13 14 16 19 21 23 24 24 23 21 20 19 18 16 15 15 13 12 11 10 9 8 7 6 6 6 5 5 6 5 5 5
37 36 35 35 34 34 33 33 32 32 33 31 30 29 28 28 27 26 24 24 25 25 26 25 23 26 27 25 24 22 20 20 19 18 17 16 17 17 17 18 18 19 20 20 19 17 15 13 11 12 13 14 14 15 17 20 22 23 24 24 24 22 20 18 17 16 15 14 13 12 11 10 9 8 7 6 6 5 5 5 5 5 6 6 5 5
36 35 34 34 34 33 32 32 31 30 31 30 28 28 27 26 25 25 24 24 24 24 25 25 22 23 24 25 23 20 18 17 16 16 16 16 17 18 19 19 19 20 20 19 17 16 14 13 13 14 16 19 19 19 21 24 24 23 22 21 20 19 17 15 15 14 13 12 10 10 9 8 7 6 6 5 5 5 5 4 5 6 6 7 6 5
36 35 34 33 32 32 31 30 30 29 29 28 27 26 25 25 24 24 24 23 23 23 24 23 22 20 21 24 23 19 16 16 16 16 16 16 17 18 18 18 20 21 20 18 16 16 17 19 20 20 20 21 22 22 23 22 21 19 18 17 16 15 14 13 12 11 10 9 8 8 7 6 6 5 5 5 5 5 5 5 5 6 6 7 7 6
35 34 33 32 32 31 30 29 28 27 27 26 25 25 24 24 24 23 23 23 21 21 22 21 20 18 19 24 23 19 17 17 17 18 17 17 17 16 16 19 21 20 18 18 20 22 24 26 26 24 22 21 20 19 19 18 17 16 15 14 13 12 11 10 9 9 8 7 7 6 6 5 5 5 5 5 5 5 5 5 6 6 7 7 7 6
33 32 31 30 29 29 28 27 26 25 25 24 24 24 23 23 22 22 21 21 20 19 19 19 19 19 21 25 25 22 19 18 17 17 16 15 14 14 17 20 20 19 20 22 26 28 28 26 24 22 21 19 17 16 15 14 13 12 11 10 9 9 8 8 7 7 6 6 6 5 5 5 5 5 5 5 5 5 5 5 6 7 7 8 8 8
30 29 28 27 27 26 26 25 24 24 23 23 22 22 22 21 21 21 20 19 19 19 19 21 21 21 22 23 23 21 19 17 16 15 14 14 15 18 20 22 22 23 24 25 25 25 23 22 20 18 17 16 15 13 12 11 10 9 8 7 7 7 6 6 6 6 6 5 5 5 5 5 5 5 5 5 6 5 6 6 6 7 8 9 10 9
31 29 28 27 26 25 25 25 24 23 23 22 21 20 20 20 19 19 19 18 19 20 20 21 21 20 20 19 18 17 16 15 16 16 17 20 23 24 22 21 22 22 21 20 19 18 17 16 15 14 13 12 11 10 9 8 7 7 7 6 6 6 5 5 6 5 6 6 5 6 6 6 6 6 6 6 6 6 6 6 7 8 8 10 10 10
33 31 29 28 27 26 25 25 25 24 23 22 21 20 19 18 18 18 19 19 19 20 20 20 19 19 20 20 18 16 16 17 19 20 22 24 25 22 20 18 17 15 15 14 13 13 12 11 10 10 9 9 8 8 7 7 7 6 6 6 6 6 5 5 6 6 6 6 6 6 6 7 7 6 6 6 6 6 7 7 8 8 9 10 10 11
31 30 29 28 28 26 25 25 24 23 22 20 19 18 17 16 16 17 18 18 18 18 19 19 19 21 27 29 26 22 21 22 21 20 21 21 20 17 16 15 13 12 11 10 9 9 8 7 7 7 7 7 6 6 6 6 6 6 6 6 6 5 5 5 6 6 7 7 7 7 7 7 7 7 7 6 7 7 7 8 8 9 10 11 11 13
28 27 26 25 25 24 23 21 20 19 18 18 17 17 18 17 17 17 16 16 15 16 19 22 26 31 37 37 32 28 27 25 21 18 18 19 17 15 13 12 11 11 10 9 8 7 7 6 5 5 5 6 6 6 6 5 5 6 6 6 6 5 5 6 6 7 7 8 8 8 8 8 7 7 7 7 8 8 8 8 9 10 11 11 13 14
26 24 22 22 21 20 19 18 17 18 18 19 19 19 19 18 16 16 16 16 17 20 25 31 35 40 41 37 30 27 26 23 19 17 17 17 15 14 12 11 10 9 8 8 7 7 6 6 5 5 5 5 5 5 5 5 5 6 6 6 6 6 6 6 7 7 8 8 9 9 9 8 8 8 8 8 9 9 9 9 10 11 12 13 14 14
24 23 20 19 19 18 19 20 20 20 20 19 19 18 17 18 19 20 23 26 28 29 32 33 33 34 32 28 23 21 19 17 15 14 14 13 12 11 10 10 9 9 9 8 8 7 7 7 7 6 6 6 6 6 6 6 6 6 7 7 7 7 7 7 8 8 9 9 9 9 9 9 9 9 9 9 10 10 10 10 11 12 13 14 14 14
21 22 21 20 20 21 21 21 21 20 19 18 19 20 22 25 28 30 31 32 31 29 28 26 24 23 21 18 15 15 14 12 11 11 11 11 10 9 9 9 9 9 9 8 8 8 7 7 7 7 7 7 7 7 6 6 7 7 7 7 8 8 8 8 8 8 9 9 9 10 10 11 10 10 10 10 11 11 11 11 12 13 14 14 15 14
23 25 24 22 21 21 20 20 22 22 23 26 28 30 31 32 33 31 28 25 22 19 17 16 16 16 14 11 10 10 9 9 9 8 9 9 8 8 8 8 8 8 8 8 7 8 8 8 8 8 8 8 8 8 8 7 7 7 7 7 7 7 7 7 7 8 9 9 10 11 12 12 12 12 11 11 12 12 12 13 13 14 14 14 15 15
24 23 23 21 20 20 22 26 31 33 34 35 35 33 30 27 24 21 18 15 13 11 10 9 11 11 10 9 7 8 7 7 7 6 7 7 6 7 7 6 7 6 7 7 7 7 8 8 8 9 9 9 9 9 8 8 8 7 7 7 7 7 6 7 7 8 9 10 11 11 12 13 13 12 12 12 13 13 13 14 14 15 15 15 15 16
23 23 25 27 28 30 35 37 39 38 35 32 28 24 20 16 13 12 10 9 8 7 7 6 7 8 7 7 6 6 5 5 5 5 5 5 5 6 6 6 6 6 6 6 6 7 7 7 8 8 8 8 8 8 8 8 8 7 7 7 7 7 7 7 8 8 9 10 10 11 11 12 12 13 13 14 14 14 14 15 15 15 15 15 16 17
27 31 35 39 40 41 41 39 35 31 26 22 18 15 12 10 9 8 7 7 6 6 5 5 5 5 5 5 4 5 5 4 5 5 5 5 5 5 5 5 5 5 5 5 6 6 6 7 7 7 8 7 7 7 7 7 7 7 7 7 7 7 8 8 8 9 9 9 10 10 10 11 11 12 14 15 15 15 15 16 16 15 15 16 17 18
39 42 44 43 41 37 33 28 24 20 17 14 11 10 9 8 7 6 6 5 5 5 4 4 4 5 5 4 4 4 4 4 4 4 4 4 4 5 5 5 5 5 5 5 5 6 6 6 7 7 7 7 7 7 7 7 7 7 8 8 8 9 8 8 8 8 9 9 9 9 10 11 11 13 15 16 16 15 16 16 15 15 16 17 19 19
44 42 39 35 30 26 22 18 16 14 12 10 8 7 7 7 7 7 7 6 6 6 6 5 4 6 7 6 5 5 4 4 4 4 4 4 4 4 4 4 4 4 5 5 5 6 6 7 7 7 7 7 8 8 8 9 8 8 9 8 9 9 8 8 8 8 8 8 9 9 10 11 12 14 15 16 15 15 15 16 16 16 18 19 19 19
36 32 27 23 19 16 14 12 11 10 10 10 9 7 7 8 8 8 9 8 9 10 11 10 7 9 11 10 8 8 6 6 6 6 5 5 4 4 4 4 4 4 4 5 5 5 6 6 6 6 7 7 7 8 8 9 9 9 9 9 9 9 8 9 8 8 9 9 9 10 10 11 13 15 16 15 14 15 15 16 16 17 19 20 19 18
26 22 19 16 14 12 10 10 9 10 11 12 12 10 9 9 10 11 12 12 11 12 14 13 9 10 14 14 13 13 12 11 12 11 12 11 9 7 6 6 6 6 6 6 6 6 6 6 6 5 5 5 6 6 7 8 8 8 8 9 9 9 9 9 9 9 9 9 10 10 10 11 13 15 15 14 14 15 16 17 17 18 20 20 19 17
18 16 15 15 15 14 13 14 13 13 14 13 13 13 12 12 14 16 17 15 13 11 12 14 13 12 14 15 15 17 18 18 18 19 19 19 17 14 12 12 14 13 13 11 9 8 8 7 7 7 6 6 6 6 7 7 8 8 8 8 8 9 9 9 10 10 10 10 10 10 10 11 12 13 13 13 14 15 16 17 18 18 20 20 18 17
16 15 16 17 18 17 16 16 16 16 17 17 17 17 17 17 17 19 21 19 15 13 13 17 20 20 20 18 18 22 23 24 25 26 26 25 23 20 17 16 19 20 19 15 12 11 11 10 10 9 9 8 7 7 7 7 8 8 8 8 8 8 8 9 9 9 10 10 10 10 10 10 10 11 12 12 13 14 16 17 17 18 19 19 18 17
16 16 16 16 17 17 16 16 18 20 22 24 23 21 19 19 20 25 29 29 25 22 22 23 25 29 29 25 25 30 32 32 32 31 28 25 22 19 15 15 18 20 19 15 13 13 13 12 12 11 10 10 9 8 8 8 8 8 8 7 7 7 7 8 9 9 10 10 10 10 10 10 10 10 11 12 13 14 16 17 17 17 18 19 19 18
16 16 15 15 17 19 19 19 21 23 25 26 25 22 19 21 28 35 39 38 35 31 30 29 28 32 36 34 33 36 37 35 34 32 28 24 20 15 13 14 16 16 15 13 13 13 13 12 12 11 11 10 9 9 8 8 8 8 8 7 7 7 7 7 8 9 10 10 10 10 10 11 11 11 11 12 13 14 16 16 17 17 18 18 19 18
17 17 17 17 19 22 23 23 23 25 28 29 29 26 24 28 36 41 42 40 37 33 31 32 31 34 37 37 36 37 36 36 36 35 31 27 21 17 16 16 15 14 13 13 13 13 12 11 11 10 10 10 9 8 8 7 7 8 8 8 7 7 7 7 7 8 9 10 10 10 10 10 10 10 11 12 12 14 15 16 17 17 18 18 18 18
18 19 18 18 20 24 25 25 27 31 36 39 37 30 28 32 36 38 39 39 37 33 32 32 32 33 33 33 32 32 33 34 34 34 31 26 21 19 21 20 16 14 13 13 12 12 11 10 10 9 9 9 9 8 7 7 7 7 8 8 7 7 7 7 7 7 7 9 10 11 11 10 9 10 11 11 12 13 15 16 17 18 18 18 18 19
19 19 19 19 21 25 27 28 32 36 41 44 40 32 30 32 33 33 37 39 36 33 31 29 29 29 28 27 26 26 26 27 28 29 27 23 19 20 21 19 15 14 13 11 11 10 9 9 8 8 8 8 8 8 7 7 6 6 7 7 7 6 6 6 6 6 7 7 8 10 11 10 9 9 10 11 11 12 14 16 17 18 18 18 17 18
22 22 22 24 25 28 29 30 34 38 40 41 37 33 32 33 31 31 33 34 32 29 28 26 26 26 25 23 22 21 21 21 21 22 21 18 17 17 16 15 13 12 11 10 9 9 8 8 7 7 7 7 7 7 7 6 6 6 6 6 6 5 5 6 6 6 6 7 7 9 10 10 10 9 9 10 11 12 13 15 16 17 18 18 17 17
28 27 27 29 31 31 31 31 32 33 34 34 31 30 31 31 30 28 27 27 27 24 22 22 21 21 20 19 18 18 17 16 16 16 14 13 13 13 12 11 10 9 9 8 8 7 7 7 6 6 6 6 6 6 6 6 6 5 5 5 6 5 5 5 5 6 6 6 6 7 8 9 9 9 9 9 10 12 13 14 16 17 18 18 17 15
33 32 31 32 32 31 30 29 29 28 29 29 27 27 27 26 24 22 21 21 22 20 17 16 16 15 15 14 13 13 12 11 11 10 10 9 10 10 9 9 8 7 7 6 6 6 6 5 5 5 5 5 5 5 6 6 5 5 5 5 5 5 5 5 5 5 6 5 5 6 7 8 9 8 8 9 10 11 12 14 15 16 17 17 15 14
34 32 31 30 30 28 27 26 26 26 26 26 25 24 23 22 21 19 17 17 17 16 14 12 11 11 10 9 9 8 8 7 7 7 7 7 8 8 8 8 8 7 7 6 6 5 5 5 4 4 4 4 5 4 5 5 4 4 4 4 4 4 4 4 4 5 5 5 5 5 6 7 8 8 8 9 9 11 12 13 14 15 16 16 14 13
32 32 31 29 29 28 26 25 25 24 23 23 22 22 21 21 20 18 16 15 14 13 12 10 9 8 7 7 6 6 6 6 5 5 6 6 6 6 6 6 6 6 6 5 5 4 4 4 4 4 4 4 4 4 4 4 3 3 3 3 3 3 3 4 4 4 5 5 5 5 5 6 7 7 8 8 9 10 11 12 14 14 15 14 13 13
31 30 30 29 29 28 26 25 25 25 24 23 22 20 20 19 16 14 13 12 12 11 10 10 9 8 8 7 7 6 6 5 5 4 4 5 4 4 4 4 4 4 4 4 4 3 3 3 3 3 3 3 3 3 3 3 3 3 3 3 3 3 3 3 3 4 4 4 4 4 5 5 6 7 8 8 8 10 10 12 13 13 13 13 12 12
29 29 30 31 30 28 26 24 24 25 24 22 19 17 16 15 14 12 11 10 9 9 8 9 9 8 7 7 7 6 6 5 4 4 3 3 3 3 3 3 3 3 3 3 3 3 3 3 3 3 3 2 3 2 2 2 2 2 2 2 2 2 2 2 3 3 4 4 4 4 4 5 6 7 7 7 8 9 10 11 12 12 12 12 12 12
30 29 31 33 31 29 28 26 23 23 22 20 18 17 17 16 15 13 12 11 10 9 8 7 8 7 7 7 6 6 5 5 4 4 3 3 3 2 3 3 2 2 2 2 2 2 2 2 2 2 3 2 2 2 2 2 2 2 2 2 2 2 2 2 2 3 3 3 3 4 4 4 5 6 7 7 7 8 9 10 11 11 12 12 12 12
31 29 30 34 34 31 30 29 25 24 25 23 22 22 21 20 18 15 13 12 11 10 9 8 8 7 6 6 6 5 5 4 4 4 3 3 3 3 2 2 2 2 2 2 2 2 2 2 2 2 2 2 2 2 2 2 2 2 2 2 2 2 2 2 2 2 3 3 3 4 4 4 4 5 6 6 7 8 9 10 10 11 11 11 11 11
32 31 31 35 39 36 34 34 32 32 32 29 27 25 22 20 18 15 13 12 11 11 10 8 8 7 6 6 5 4 4 4 3 3 3 3 3 2 2 2 2 2 2 2 2 2 2 2 2 2 2 2 2 2 2 2 2 2 2 2 2 2 2 2 2 2 3 3 3 3 4 4 4 5 6 6 7 7 8 9 10 10 11 11 11 11
33 34 32 34 39 40 40 40 39 39 39 35 31 27 22 19 18 16 15 13 11 10 9 8 7 6 5 5 5 4 4 3 3 3 3 2 2 2 2 2 2 2 2 2 2 2 2 2 2 2 2 2 2 2 2 2 2 2 2 2 2 2 2 2 2 2 3 3 3 4 4 4 4 5 6 6 7 7 8 9 9 10 10 10 11 11
34 35 34 34 39 43 46 47 45 44 42 38 33 28 23 21 20 18 16 14 11 9 8 7 6 5 5 5 4 3 3 3 2 2 2 2 2 2 2 2 2 2 2 2 2 2 2 2 2 1 2 2 2 2 2 2 2 2 2 2 2 2 2 2 2 3 3 3 3 3 4 4 4 5 6 6 7 7 8 9 9 10 10 10 10 10
35 35 36 39 42 46 49 48 47 46 43 36 30 26 23 22 21 19 15 12 9 8 7 6 5 5 4 4 3 3 2 2 2 2 2 2 2 2 2 2 2 2 2 2 2 2 1 2 2 2 2 2 2 2 2 2 2 1 2 2 2 2 2 2 2 2 2 3 3 3 4 4 4 5 6 7 7 7 8 9 9 9 10 10 10 10
36 38 41 44 48 49 47 44 42 42 39 32 25 21 20 20 19 17 13 10 8 6 5 5 4 4 3 3 3 2 2 2 2 2 2 2 2 2 2 2 2 2 2 2 2 2 2 2 1 2 2 2 2 2 2 2 2 2 2 2 2 2 2 2 2 2 2 3 3 3 3 4 4 4 5 6 7 7 8 8 9 9 9 9 9 10
38 41 43 45 47 47 45 42 38 35 32 27 22 19 17 15 14 11 9 7 6 5 4 4 4 3 3 2 2 2 2 2 2 2 2 2 2 2 2 2 2 2 2 2 2 1 1 1 1 1 2 1 2 2 1 2 2 2 2 2 2 2 2 2 2 2 2 3 3 3 3 3 3 4 5 5 6 7 8 8 8 9 9 9 9 9
43 45 45 44 44 44 41 38 32 25 21 19 16 14 13 11 9 7 5 5 4 4 3 3 3 3 3 2 2 2 2 2 2 2 2 2 2 2 2 2 2 2 2 2 2 1 1 1 1 2 2 2 2 1 2 2 2 2 2 2 2 2 2 2 2 2 2 3 3 3 3 3 3 4 4 5 5 6 7 7 8 8 8 8 8 8
47 48 47 43 41 39 36 31 24 18 14 13 12 11 10 8 6 5 4 3 3 3 3 2 2 2 2 2 2 2 2 2 2 2 2 2 2 2 2 2 2 2 2 2 2 2 2 1 1 2 2 2 2 2 2 2 2 2 2 2 2 2 2 2 2 2 2 2 2 3 3 3 3 4 4 4 5 5 6 6 7 7 7 7 7 7
47 48 46 42 39 37 33 27 21 16 14 12 11 10 8 6 5 4 3 3 3 3 3 2 2 2 2 3 3 2 2 2 2 2 2 2 2 2 2 2 2 2 2 2 2 2 2 2 2 2 2 2 2 2 2 2 2 2 2 1 2 2 2 2 2 2 2 2 2 2 3 3 3 4 4 4 4 4 5 6 6 7 7 7 7 7
Wind_Speed
23 25 26 28 30 32 34 35 37 39 40 42 43 44 45 46 49 51 51 53 54 53 56 58 58 62 68 70 72 72 71 70 70 73 74 75 76 77 78 78 78 79 80 81 82 82 83 83 85 86 86 85 84 83 83 83 84 85 85 86 87 87 86 86 85 85 85 86 88 89 90 92 93 94 94 95 95 96 97 97 97 98 97 97 97 96
26 27 29 31 33 35 37 38 40 42 43 45 46 47 49 49 50 53 55 56 58 57 59 61 60 64 70 72 74 75 74 73 72 74 76 77 78 78 78 79 80 81 82 83 84 85 86 86 88 88 87 86 84 84 84 85 86 86 87 87 88 88 88 89 89 89 89 90 91 93 94 94 95 96 96 96 96 96 97 97 97 97 96 96 95 94
29 31 33 35 37 38 40 42 43 45 47 48 50 51 51 53 53 55 58 59 61 61 62 64 63 66 72 75 77 79 79 78 76 76 78 79 79 79 80 81 82 83 85 86 87 88 88 88 89 90 89 87 85 85 86 87 87 87 88 88 89 90 91 92 93 93 93 93 94 95 96 96 97 97 97 97 97 96 95 95 94 94 94 94 93 92
33 35 36 38 40 42 43 45 46 48 50 51 53 54 55 57 57 57 59 61 64 65 66 67 65 67 73 76 79 81 81 82 82 82 82 82 81 82 82 83 83 84 86 88 90 91 91 91 90 91 90 88 87 88 88 88 89 89 90 91 92 93 94 95 96 97 97 96 96 97 98 98 98 98 98 98 97 96 94 93 92 91 92 91 91 90
36 38 40 41 43 45 46 48 49 51 53 55 56 57 58 60 61 62 63 62 65 67 69 70 67 67 74 79 81 82 82 83 85 85 85 84 83 84 84 85 86 87 89 91 92 94 95 95 93 92 91 90 89 90 90 90 91 91 92 94 96 97 98 98 98 99 99 99 98 99 99 99 99 98 98 97 96 95 93 91 90 89 89 89 89 88
40 42 43 45 47 48 50 51 53 53 56 58 60 61 61 63 64 66 67 66 67 68 71 74 71 67 71 79 84 84 83 83 85 85 86 84 82 84 85 86 87 89 91 93 95 96 97 97 96 95 94 93 92 91 91 92 94 95 96 97 99 100 101 101 100 100 100 100 99 99 100 99 99 98 97 96 95 93 91 89 88 87 87 88 88 87
44 45 47 49 50 52 53 54 56 57 58 61 63 64 65 66 67 68 70 70 70 70 72 77 76 71 71 78 85 87 85 84 85 87 87 85 83 83 84 86 88 91 93 94 96 97 98 98 98 97 96 96 96 95 94 95 97 98 99 100 101 102 102 102 101 101 101 100 100 99 99 99 98 97 96 95 93 91 90 88 87 85 84 85 86 86
48 49 51 52 54 55 57 58 60 61 62 64 65 67 68 69 70 71 72 73 73 72 74 78 80 77 75 80 87 89 88 86 87 89 89 87 86 85 86 87 89 92 93 95 96 97 98 98 99 99 99 99 98 98 97 97 98 99 100 101 101 102 103 103 102 101 101 100 99 98 98 98 97 96 95 93 91 89 88 86 85 83 82 83 84 85
51 53 54 56 57 59 61 62 63 64 66 67 68 69 71 72 72 73 74 75 76 75 76 79 81 80 79 83 90 92 91 90 90 91 90 89 88 87 88 89 91 93 94 94 95 97 98 99 100 101 102 102 101 101 100 99 99 99 100 100 101 102 102 102 101 101 100 99 97 97 97 97 96 95 93 91 89 88 86 85 84 82 81 81 83 83
55 56 58 59 60 62 64 66 67 68 69 70 71 72 73 74 74 75 77 78 78 79 79 81 83 83 81 84 91 93 93 92 92 92 92 91 91 89 90 91 93 94 94 95 96 98 100 101 101 102 103 104 104 103 102 101 101 100 100 100 100 100 100 100 100 99 98 97 96 96 96 95 94 93 91 90 88 86 85 84 82 81 79 80 82 82
60 61 62 63 64 65 67 69 70 71 72 73 74 74 74 76 76 77 79 80 81 82 82 83 84 85 84 84 89 93 94 94 93 93 93 92 92 92 93 94 95 96 96 97 98 99 100 101 102 102 103 103 103 103 103 102 101 101 100 100 99 99 99 98 98 97 97 96 95 95 94 93 92 91 90 89 87 85 84 82 81 80 78 78 80 81
65 66 66 67 68 69 70 72 74 75 76 77 78 78 78 78 79 79 80 82 82 83 83 84 85 87 88 88 89 92 95 94 94 94 94 94 95 96 97 98 98 98 98 99 99 100 100 101 101 101 101 101 101 101 101 100 100 100 99 99 99 98 98 97 96 96 95 95 94 94 93 92 91 90 89 87 85 84 82 81 80 79 78 77 79 80
67 69 70 71 72 73 73 74 76 78 79 80 81 82 82 81 80 80 81 82 83 84 85 86 87 89 91 92 92 93 94 95 95 96 96 97 98 99 100 100 100 100 100 100 100 100 100 100 100 100 100 100 99 99 99 98 98 97 98 98 97 97 96 95 94 94 94 93 93 93 92 91 90 89 88 86 84 83 81 80 78 77 77 77 78 79
67 70 72 73 74 76 76 77 77 78 80 81 82 83 84 84 83 81 81 83 84 85 87 88 90 91 93 95 95 95 97 98 98 98 99 101 102 102 102 102 103 103 103 102 102 101 101 100 100 100 99 99 98 98 98 97 96 96 96 97 96 95 94 93 92 92 92 92 92 92 91 91 89 88 86 85 83 82 81 79 77 76 76 76 76 77
68 71 72 73 75 76 78 79 80 80 81 82 83 84 86 87 87 86 86 86 86 86 87 89 90 92 95 97 98 98 100 101 101 101 101 103 104 105 104 104 104 104 104 104 103 102 102 102 101 100 99 98 98 97 97 96 95 95 95 96 95 94 93 92 91 91 91 91 91 90 90 90 88 87 85 84 82 81 81 79 76 74 75 75 75 76
71 74 75 76 77 78 79 81 82 83 84 84 85 86 87 89 90 91 90 91 91 90 90 91 91 94 97 99 100 100 100 102 102 101 101 101 102 103 103 103 102 102 102 102 102 102 101 101 101 100 99 98 97 96 96 95 94 94 94 94 94 94 93 91 90 90 90 90 89 89 89 88 87 86 84 83 81 81 80 78 75 74 74 74 75 75
72 76 78 78 80 81 81 83 84 86 87 87 88 89 89 91 92 93 93 93 94 94 94 95 95 95 98 99 99 99 99 100 101 100 99 98 99 100 99 99 99 99 99 99 99 100 100 99 99 98 98 97 96 96 95 94 93 92 91 91 92 92 91 91 89 89 89 89 88 87 87 87 86 85 84 82 81 80 80 77 75 73 73 73 74 75
74 76 79 80 81 82 83 84 86 88 89 89 90 91 91 92 93 95 96 96 97 97 96 97 96 96 99 99 97 96 96 96 96 95 94 94 95 96 96 96 96 95 96 96 96 97 97 97 96 96 95 95 95 95 94 93 91 90 89 89 88 88 88 88 88 87 87 87 87 86 85 85 85 84 83 82 80 79 79 77 74 73 72 72 73 74
77 77 80 82 82 83 85 86 87 89 91 91 92 93 94 94 95 96 97 98 98 98 97 96 94 93 96 97 95 94 94 92 91 90 89 90 91 91 91 91 91 91 92 92 92 92 92 92 92 92 91 91 91 91 92 91 90 89 88 87 87 86 86 86 86 86 86 86 86 85 84 84 84 84 83 81 80 79 77 76 74 73 72 71 72 73
80 80 83 85 85 85 86 88 89 91 93 94 96 96 97 97 96 96 96 97 97 96 95 93 89 88 90 91 90 90 89 88 87 85 85 86 86 86 87 87 87 87 87 86 86 86 86 86 86 86 86 85 86 86 86 87 87 87 87 86 86 86 85 85 85 84 84 84 84 84 83 82 82 83 82 80 79 77 76 75 73 72 71 71 72 72
83 84 85 87 88 88 89 91 93 95 97 98 99 100 99 99 97 96 94 94 93 93 92 90 86 84 86 85 84 84 83 83 83 82 81 82 82 82 83 84 84 83 83 82 82 82 82 81 81 82 82 82 82 82 82 82 83 83 84 84 84 84 84 84 84 84 83 83 83 83 83 82 81 81 80 79 78 76 75 74 73 71 71 70 71 71
84 85 87 89 91 92 93 95 97 98 99 99 99 99 99 98 97 95 92 91 90 90 90 89 84 82 85 84 82 82 82 81 81 81 80 80 79 80 80 81 82 81 80 80 79 79 79 78 78 78 78 79 79 79 80 80 80 81 81 82 82 83 83 83 83 83 83 83 82 82 82 82 80 79 78 77 76 76 75 74 72 71 70 70 70 70
87 87 89 92 94 95 96 96 97 98 98 97 96 95 95 95 95 94 92 89 88 88 88 87 83 82 85 85 82 82 82 82 82 81 80 79 78 78 79 79 80 80 79 79 78 77 77 76 75 75 75 75 76 77 78 78 78 78 78 79 80 80 80 81 81 81 81 81 81 81 80 80 80 78 77 75 75 75 74 73 72 71 70 70 69 69
90 91 91 93 95 95 95 96 96 96 95 95 94 93 92 92 91 91 91 90 88 87 88 87 84 82 87 88 85 84 83 83 85 84 82 80 78 78 78 78 79 78 78 77 77 77 76 76 75 74 74 73 74 75 76 77 77 77 76 76 77 77 78 78 78 79 79 79 79 79 78 78 78 77 75 74 74 74 73 72 71 70 69 69 69 68
92 93 93 93 94 93 91 92 92 91 92 93 93 92 91 90 90 90 91 91 90 89 91 92 88 85 89 91 90 89 89 89 90 91 90 88 85 83 82 82 82 81 80 80 79 78 77 77 76 75 73 72 72 73 74 75 76 76 76 76 76 76 76 76 76 77 77 77 77 77 76 75 75 75 74 73 73 73 72 71 70 69 68 68 69 68
91 92 92 92 94 93 92 92 92 91 91 92 92 92 91 90 91 92 92 93 92 90 91 93 92 89 90 93 93 93 93 93 95 96 96 96 95 92 90 89 89 89 89 88 86 83 81 80 79 77 75 74 73 73 74 75 75 76 76 75 74 74 75 75 75 75 76 76 76 75 75 74 72 72 73 73 72 72 72 71 70 68 66 68 69 68
87 87 87 88 91 93 92 93 94 94 94 93 92 91 90 89 90 91 92 93 93 91 90 92 94 92 92 93 93 93 94 94 95 97 97 98 98 98 97 96 95 95 95 94 92 90 88 87 86 85 82 80 78 77 77 77 77 77 76 75 73 72 72 73 74 74 74 75 75 75 74 73 71 71 71 72 71 71 70 70 68 66 65 67 68 68
83 83 83 83 86 89 89 89 91 92 93 93 92 89 88 87 88 89 90 92 94 93 92 92 93 93 93 94 93 93 94 95 95 96 97 98 98 99 99 98 97 97 98 97 95 94 93 91 91 90 89 87 85 83 82 81 80 79 78 76 74 71 70 71 73 73 73 73 74 74 74 73 72 71 71 71 70 70 69 68 67 65 65 66 67 67
80 80 79 78 80 85 86 85 86 88 90 91 91 88 85 85 86 86 87 89 92 94 94 92 91 90 92 94 93 92 93 94 95 96 98 99 99 100 99 98 98 98 99 99 97 96 96 94 93 92 92 90 89 87 86 84 83 83 81 79 77 74 71 70 70 72 72 72 72 72 73 73 72 72 71 71 70 69 68 67 66 65 64 64 65 67
76 76 76 74 75 81 84 83 83 85 87 89 90 88 84 83 83 82 82 84 88 91 92 92 90 88 89 91 91 91 92 94 95 98 100 102 103 103 102 101 101 100 100 100 99 98 98 96 95 94 92 91 90 88 87 85 84 84 83 82 80 77 74 71 70 69 70 71 72 71 71 72 72 72 71 70 69 69 67 66 66 65 64 63 64 65
75 75 75 73 73 77 81 81 81 83 86 88 89 87 83 80 77 76 77 80 84 88 89 89 89 87 87 89 89 89 91 93 94 97 100 103 104 105 105 105 104 103 102 102 101 100 99 98 96 95 94 93 91 89 87 84 83 84 84 84 82 79 76 74 71 69 68 69 70 71 71 71 70 70 70 69 69 68 67 66 65 65 64 62 62 63
77 76 76 75 72 73 76 77 77 78 80 83 87 86 82 78 76 74 73 75 81 87 88 87 86 87 87 89 89 88 89 90 92 95 99 102 104 105 105 106 106 105 104 103 102 101 99 98 97 95 94 94 92 91 89 86 84 84 85 85 83 80 77 75 73 71 68 67 67 69 71 71 70 69 69 68 67 67 66 65 65 64 63 61 60 61
79 78 77 76 74 72 73 74 72 72 74 78 84 86 82 80 78 74 70 70 76 85 88 87 87 88 89 90 91 91 90 90 91 94 98 102 102 102 104 106 107 106 105 103 102 101 99 97 96 95 94 94 92 91 90 87 85 84 84 85 83 80 77 75 73 71 68 66 65 66 68 70 70 69 68 67 66 65 65 64 63 62 61 60 59 59
79 79 78 78 76 73 72 71 69 67 69 75 81 82 81 81 80 75 69 68 73 81 86 87 87 88 90 92 93 94 94 93 94 96 100 102 102 102 104 105 106 105 104 103 101 99 98 97 95 94 93 93 92 90 89 87 86 85 83 83 82 78 76 74 73 71 69 67 65 64 65 68 69 69 67 66 65 64 63 62 61 60 59 59 59 58
78 78 77 77 77 75 72 72 69 66 66 73 78 77 76 78 79 77 73 70 74 80 83 85 86 88 90 92 93 95 96 96 97 99 102 102 101 102 103 103 103 103 102 101 100 98 96 95 94 92 91 90 90 89 88 87 87 86 84 83 82 79 76 74 73 72 70 68 66 64 65 67 68 68 67 65 63 63 62 60 59 58 57 58 59 60
76 76 75 74 75 74 72 71 71 68 67 72 76 74 74 77 79 81 77 74 77 81 83 85 87 89 90 91 93 95 96 96 96 98 100 99 98 99 101 101 101 101 100 100 99 97 96 94 93 91 90 89 87 87 86 86 85 85 83 82 81 79 76 73 72 71 70 68 66 65 65 67 67 67 66 63 62 61 61 59 58 57 56 57 59 60
72 73 73 72 73 74 73 70 70 69 68 72 75 76 77 79 82 85 84 81 82 85 87 88 89 90 91 91 92 93 94 94 94 94 96 96 96 96 97 97 98 98 98 98 97 97 95 94 92 91 90 89 87 85 84 83 83 82 81 80 79 77 74 71 70 69 67 66 65 65 65 66 67 65 64 62 61 60 60 58 57 56 56 57 59 60
70 71 72 73 72 74 75 73 72 72 71 73 77 78 79 81 84 87 88 86 87 90 92 94 94 94 94 94 94 95 94 94 92 92 93 93 93 93 93 92 92 92 93 94 93 93 92 91 91 91 91 90 88 85 84 82 81 80 79 78 77 74 71 68 67 66 65 64 64 65 65 66 65 64 62 61 60 59 59 58 57 56 56 57 59 59
69 69 71 72 73 73 74 73 74 76 76 76 78 80 81 84 86 88 89 89 90 92 94 96 98 99 98 98 98 97 97 96 93 91 90 91 91 91 91 90 89 88 88 89 90 89 88 86 86 87 88 88 86 84 82 81 80 78 77 77 76 73 69 65 62 62 63 63 63 63 64 65 63 61 60 60 59 59 58 58 57 57 57 57 58 58
70 70 71 73 74 75 75 74 75 77 79 80 81 82 84 86 89 91 92 93 93 94 95 96 98 100 100 99 99 99 99 98 97 94 92 92 92 91 91 91 90 88 87 87 88 88 87 85 83 84 85 85 85 83 81 79 78 76 76 76 75 72 68 63 59 59 61 62 61 61 62 63 61 59 59 59 59 58 58 58 58 57 57 57 58 58
73 74 75 77 78 78 79 79 78 80 83 85 87 89 90 92 94 96 97 98 99 100 100 99 100 101 102 101 101 100 99 99 99 98 96 95 95 94 93 93 92 90 88 86 85 85 84 81 80 80 80 81 81 81 79 78 76 75 74 73 73 71 66 60 56 56 58 59 59 59 61 62 60 58 59 60 58 57 58 58 58 57 57 57 57 58
79 78 78 82 84 84 85 87 86 87 90 91 93 95 97 98 100 100 100 101 102 103 104 104 103 104 104 103 103 102 101 101 101 100 99 99 98 96 94 93 92 91 89 86 84 82 80 77 74 74 75 75 76 76 76 76 75 73 72 71 70 68 64 58 54 53 54 55 55 56 59 61 58 56 59 60 58 57 57 58 58 57 57 57 58 58
83 83 82 86 90 91 91 93 94 95 98 99 100 101 102 103 104 105 105 104 104 104 105 105 104 104 104 104 104 103 103 102 101 100 100 98 97 95 93 92 90 88 86 84 82 80 78 74 70 69 69 70 70 70 70 70 70 69 68 67 65 63 61 56 52 51 51 52 52 53 55 57 55 54 57 59 57 56 57 57 57 57 57 57 57 58
85 87 86 87 92 95 95 97 98 100 102 104 105 105 105 106 107 108 108 108 106 104 104 103 102 102 102 103 103 102 102 101 99 98 97 95 93 91 89 87 86 84 82 80 78 77 75 72 69 67 66 66 65 64 64 65 64 62 61 60 58 56 56 53 50 48 48 49 49 49 52 53 51 51 55 57 57 56 56 57 57 57 57 57 57 57
88 90 91 90 93 96 98 99 100 101 103 104 105 106 106 106 107 107 107 107 105 104 103 102 101 100 99 99 99 99 98 97 95 94 93 91 88 86 85 83 81 80 78 76 74 73 71 69 67 65 63 62 62 60 60 61 60 57 55 55 52 50 49 48 46 45 46 46 46 47 49 49 49 49 52 54 55 55 55 56 57 57 57 57 57 57
93 94 95 96 97 98 98 99 99 100 101 102 102 102 103 104 105 104 104 103 103 102 101 101 100 99 98 97 96 96 94 93 92 90 89 87 85 83 81 78 76 75 74 72 70 69 67 65 64 62 60 58 57 57 57 57 56 53 51 50 48 46 44 43 42 42 43 44 45 46 47 47 47 47 49 51 53 54 54 55 56 56 57 57 57 57
96 98 99 100 100 100 100 99 98 98 100 101 101 101 101 102 102 101 100 99 99 99 99 99 98 97 95 93 93 92 90 89 88 87 85 83 82 80 78 76 73 71 70 68 67 65 63 62 60 58 56 54 53 53 53 53 52 50 48 46 44 43 42 40 39 39 41 43 45 47 47 47 47 46 48 50 51 52 53 55 56 56 56 57 56 56
100 101 102 102 101 101 101 101 100 98 97 98 99 98 97 97 96 93 92 92 92 93 93 93 92 91 89 86 86 86 85 84 84 83 81 79 78 77 76 74 71 69 67 65 63 61 59 57 55 53 51 50 49 49 49 49 48 46 44 42 41 40 40 38 36 36 38 42 45 46 47 47 47 47 48 50 50 51 52 54 55 55 56 56 56 56
105 106 106 105 103 102 101 101 100 97 93 91 91 91 91 92 91 88 86 86 87 87 86 85 84 84 83 81 79 79 79 79 79 78 77 76 74 73 72 71 69 67 65 62 61 58 56 53 51 49 48 47 46 45 44 44 44 43 40 39 38 38 38 36 34 34 37 40 44 45 46 46 47 47 49 50 50 50 51 53 54 55 55 56 55 55
108 110 110 108 106 104 103 102 102 101 99 96 95 94 93 93 92 90 88 87 86 85 84 82 80 79 79 78 77 76 74 73 73 72 71 71 70 68 67 67 65 63 62 61 59 57 55 53 51 48 46 45 44 42 41 41 40 39 37 36 36 36 36 34 33 34 36 39 42 44 44 44 45 47 49 50 50 50 51 51 52 54 55 55 55 55
110 112 112 111 110 109 108 107 106 106 105 104 101 99 97 96 95 93 91 90 88 86 85 83 81 79 77 76 75 73 70 68 67 65 64 64 65 64 63 63 62 60 58 58 56 55 53 51 50 48 46 44 42 40 40 39 37 35 34 34 33 33 33 32 32 34 36 39 40 41 41 42 43 46 48 49 50 50 49 49 50 52 53 53 53 53
Wind_Direction
297 297 298 298 299 299 299 299 298 297 296 295 295 295 295 296 297 298 298 298 299 301 301 302 305 305 302 301 301 301 302 303 303 303 302 302 303 303 304 305 305 305 304 304 304 303 302 301 300 299 299 299 300 302 303 303 303 303 303 303 303 303 303 303 302 302 302 302 302 303 303 303 303 304 304 304 304 305 305 305 305 305 305 305 305 305
299 299 299 300 300 300 299 298 297 296 296 296 296 296 297 297 298 300 300 300 300 302 302 302 304 305 303 302 302 302 302 303 303 302 302 302 303 303 304 305 305 305 305 305 304 303 302 301 300 299 299 300 301 303 303 303 303 303 304 303 303 303 303 303 303 302 303 303 303 303 303 304 304 304 304 304 304 305 305 305 306 306 306 305 305 306
301 300 300 300 299 299 298 298 297 297 297 297 297 297 298 298 299 300 301 301 302 302 303 303 304 305 304 303 303 303 303 303 303 302 302 302 303 304 305 305 305 306 305 304 303 302 301 300 299 299 300 301 303 304 304 304 304 304 304 303 303 303 303 303 303 303 303 303 304 303 303 303 304 304 304 304 304 305 305 306 306 306 306 306 306 307
301 300 300 299 298 298 297 297 298 298 297 297 297 298 298 298 298 299 300 302 302 303 303 303 304 306 304 304 303 303 304 304 305 304 303 304 305 305 305 305 305 305 304 303 302 300 300 299 300 300 301 303 305 305 304 304 304 304 304 303 303 303 303 303 303 303 303 303 304 303 303 303 303 304 304 304 304 305 305 306 306 307 306 306 307 307
299 298 298 297 297 296 296 297 297 298 298 298 298 298 299 299 299 299 299 301 302 302 303 302 304 306 305 304 304 303 303 304 304 303 303 304 305 305 305 306 305 305 304 302 302 301 301 301 301 302 303 304 305 304 304 304 304 304 304 303 303 303 302 302 303 303 303 303 303 303 303 303 303 303 304 304 305 305 306 306 307 307 307 307 307 308
297 297 296 296 296 296 296 296 296 297 298 298 298 298 299 299 300 300 300 301 302 303 303 303 303 305 305 304 302 301 301 301 301 301 302 303 304 305 305 306 305 304 303 302 301 301 301 302 303 303 304 304 304 304 304 304 304 303 303 303 303 302 302 302 302 303 303 303 303 303 303 303 303 303 304 304 305 306 306 307 307 308 308 308 308 308
296 296 296 296 296 296 296 296 297 297 298 298 298 299 299 299 300 300 301 302 302 303 304 303 303 304 304 303 300 300 300 300 301 301 301 302 304 304 305 304 303 302 301 301 300 301 301 302 303 304 304 304 303 304 304 303 303 302 302 302 302 301 301 302 302 302 302 303 303 303 303 303 303 304 304 305 305 306 307 308 308 308 309 309 308 308
297 296 296 296 296 297 297 297 297 297 298 298 298 299 299 300 301 301 302 303 303 304 304 304 304 305 305 303 300 300 300 301 301 301 302 303 304 304 304 302 301 300 299 299 300 301 302 302 303 302 302 302 302 302 302 302 301 301 301 301 301 301 301 301 302 302 302 303 303 303 303 303 303 303 304 305 306 307 307 308 308 308 309 309 308 308
297 297 297 297 297 297 297 297 297 298 298 298 299 299 300 300 301 302 303 303 304 304 304 304 304 304 305 303 301 301 301 302 302 301 302 303 303 302 302 301 299 298 298 299 300 301 301 301 301 301 301 301 301 301 301 301 300 300 300 300 300 300 300 301 301 302 302 302 303 302 302 302 303 303 304 305 306 307 307 307 308 309 309 309 309 309
296 296 296 296 296 297 297 297 298 298 298 298 299 300 301 301 303 303 304 304 304 305 305 304 304 303 304 302 300 301 301 301 301 301 302 302 301 301 300 299 297 297 298 300 300 300 299 299 300 300 300 301 301 301 300 300 300 300 299 299 299 300 300 300 301 301 302 302 302 302 302 302 303 304 305 306 306 307 307 308 308 309 310 310 309 309
296 296 296 296 297 298 298 298 299 299 299 300 300 301 302 303 304 305 305 305 305 305 304 303 303 302 301 300 299 299 299 300 300 300 301 301 301 301 299 298 298 298 299 299 298 298 298 299 299 299 299 299 299 300 300 300 300 300 300 300 300 300 300 300 300 301 301 301 301 301 302 302 303 304 305 306 306 307 307 308 309 310 310 310 309 309
300 299 298 299 299 299 300 300 301 302 302 302 303 303 303 304 304 304 304 303 303 302 302 301 301 301 301 299 299 298 299 299 300 300 300 301 300 299 298 298 298 298 298 297 297 298 298 298 298 298 298 298 298 298 299 299 299 300 300 300 300 299 300 300 301 301 301 301 301 301 302 303 303 304 305 306 306 307 308 309 309 310 310 310 309 309
300 300 300 301 301 301 302 302 303 303 303 303 303 303 303 303 302 302 302 301 301 301 301 302 301 301 301 300 300 299 299 299 300 300 300 300 299 298 298 298 298 298 298 298 298 298 298 297 297 297 297 297 298 298 299 299 299 299 299 299 299 299 300 300 301 301 301 301 301 302 302 303 303 304 305 305 306 307 308 309 310 310 310 310 309 309
299 300 300 301 302 302 302 302 302 302 302 302 302 302 302 302 301 301 301 301 301 301 302 302 302 302 302 301 300 300 300 300 300 300 301 300 300 300 300 299 299 299 299 299 299 298 298 298 298 298 298 298 299 299 299 299 299 299 299 299 299 299 300 300 300 300 301 301 301 301 302 302 303 304 305 305 306 307 308 309 310 310 310 309 309 309
299 299 300 300 301 301 301 302 302 302 302 302 302 303 303 303 303 303 302 301 301 301 301 301 301 302 301 300 300 300 300 300 300 300 300 300 300 300 300 300 300 300 299 299 299 299 299 299 299 299 299 299 299 299 299 299 300 300 299 299 300 300 300 300 301 301 300 300 300 301 301 302 303 304 305 306 307 307 308 309 310 310 309 309 309 309
301 301 301 301 301 301 302 302 303 303 303 304 304 304 304 303 303 303 303 302 302 302 302 301 301 300 298 298 299 299 298 298 299 299 299 298 298 298 298 298 298 298 298 298 298 298 298 299 299 299 299 299 299 299 299 299 299 299 299 300 300 300 301 301 300 300 300 300 300 301 301 302 303 304 305 306 307 307 308 309 310 310 309 309 309 309
302 302 302 302 302 303 304 304 304 304 304 304 303 303 303 303 302 302 302 302 302 302 301 300 300 299 296 297 298 298 297 297 297 298 297 296 295 295 296 296 296 296 296 296 297 297 297 298 298 298 299 299 299 299 299 299 299 299 299 299 299 299 300 299 299 299 299 300 300 301 302 303 303 304 305 306 307 307 308 310 310 309 309 309 309 309
302 302 302 303 303 304 304 304 304 303 303 303 303 302 302 302 302 302 302 301 301 301 300 300 300 298 296 297 298 296 296 296 296 296 296 295 294 295 295 295 295 295 295 295 296 296 297 297 297 298 298 298 299 299 299 299 299 298 298 298 297 297 297 298 298 299 299 300 301 302 302 303 303 304 305 306 307 307 308 309 309 308 308 309 309 309
303 303 303 303 303 304 304 304 303 303 302 302 302 301 301 301 300 300 300 300 300 300 299 299 299 297 296 297 298 296 296 296 295 295 294 293 293 293 293 293 293 294 294 294 295 295 296 296 297 297 297 298 298 298 298 298 298 298 298 297 297 297 297 298 298 299 300 300 301 302 302 303 303 304 305 306 306 307 308 308 308 307 308 309 308 308
304 304 304 304 304 304 304 304 303 302 302 302 301 301 301 301 301 300 300 300 300 300 299 299 298 296 295 296 296 295 295 294 293 293 292 292 293 293 293 293 293 293 294 294 295 295 295 295 296 296 296 296 297 297 297 298 298 298 298 298 298 298 299 299 299 300 300 301 301 301 302 302 302 303 304 305 305 306 306 306 306 306 307 308 308 309
305 305 305 305 305 305 305 304 303 303 303 303 303 303 303 302 302 302 301 301 301 300 299 298 297 296 295 294 294 294 294 294 294 294 294 294 294 295 295 295 295 295 295 295 295 295 295 296 296 296 296 296 297 297 297 297 298 298 298 299 299 299 299 300 300 301 301 301 301 301 302 302 302 302 303 304 304 305 305 305 305 306 307 308 308 309
305 305 305 305 305 305 305 304 304 304 304 303 304 304 304 304 304 304 303 303 302 301 300 299 299 300 299 298 297 298 298 298 298 297 297 297 296 296 297 297 297 297 297 297 297 297 296 296 296 297 297 297 298 298 298 298 299 299 299 299 300 300 300 301 301 301 302 302 302 302 302 302 302 302 302 303 304 304 304 304 305 306 307 307 308 309
305 306 306 306 305 305 305 305 304 304 304 304 305 304 305 305 305 304 304 304 303 302 301 301 301 304 304 302 302 302 301 301 300 300 299 299 299 299 299 299 299 299 299 299 299 298 298 298 297 298 298 299 299 300 300 300 300 300 300 299 300 300 300 300 301 301 301 302 302 302 302 302 302 302 302 302 303 303 303 304 305 306 306 306 307 308
306 306 306 305 305 305 306 306 305 306 305 305 305 305 305 305 305 305 305 305 306 306 306 305 306 308 307 306 306 305 305 305 304 304 303 302 301 301 301 301 301 301 301 301 301 301 301 300 300 300 300 300 301 301 302 301 301 300 300 299 299 300 300 300 300 301 301 301 301 301 301 301 301 302 302 302 302 302 303 303 304 305 305 306 306 307
306 307 307 306 306 306 306 306 305 306 306 306 306 306 306 307 308 308 308 309 310 310 310 309 310 311 311 310 310 310 310 310 309 309 309 308 307 306 305 305 305 305 305 304 304 304 303 303 302 301 301 301 301 302 302 302 301 301 300 300 300 300 300 300 300 300 300 300 299 299 300 300 301 302 302 302 302 302 302 303 304 304 304 305 305 306
308 308 309 309 309 308 309 308 308 308 308 308 308 308 309 310 311 312 312 311 311 311 312 311 311 313 313 312 312 312 312 312 312 312 312 311 311 310 309 309 309 309 309 308 307 307 306 305 304 303 303 302 303 303 304 303 303 302 301 301 301 301 301 300 300 299 299 299 298 298 299 300 301 301 301 301 302 302 302 302 302 303 304 304 304 305
309 310 310 311 311 310 311 311 311 311 310 310 310 311 313 314 315 314 313 312 311 312 313 313 313 314 313 312 312 313 312 312 312 311 311 311 310 310 310 310 309 309 308 308 308 308 308 308 307 307 306 306 306 306 306 305 304 303 302 301 301 301 301 301 300 300 299 299 299 299 299 300 300 300 300 300 301 301 301 301 301 302 302 302 303 304
310 311 311 312 312 311 312 312 312 313 313 313 313 314 316 316 315 315 315 314 313 313 314 314 314 314 313 312 313 313 312 312 311 310 309 308 308 307 307 307 307 306 306 306 307 307 307 307 307 307 307 307 307 307 307 306 306 304 303 302 301 301 301 301 300 300 299 299 299 299 300 300 300 299 299 299 299 299 300 300 300 301 301 302 303 303
311 311 312 313 313 312 312 313 314 314 314 314 313 314 316 316 316 316 316 315 314 314 314 313 313 313 312 312 313 312 311 310 309 308 307 306 306 305 306 306 305 305 304 305 306 306 306 306 306 306 306 306 306 306 306 306 305 305 304 303 303 302 302 301 300 300 299 299 299 299 299 299 299 299 299 299 299 299 299 299 299 300 300 301 302 303
311 311 312 314 315 314 313 314 315 314 313 312 312 313 316 316 316 315 315 314 313 312 311 311 312 312 311 310 311 310 308 308 307 307 306 306 306 306 306 306 305 305 305 305 306 305 305 305 305 305 305 305 304 304 304 304 304 304 303 303 303 303 303 302 301 300 299 299 299 299 298 298 298 298 298 298 298 298 298 298 299 299 300 300 301 302
312 312 313 315 316 314 313 314 315 314 313 312 311 312 315 315 313 312 312 311 310 309 309 309 310 310 308 308 307 307 306 306 306 305 304 304 304 305 306 305 305 305 305 305 305 305 305 305 304 304 304 303 303 303 302 302 302 302 301 301 301 302 302 302 301 301 300 299 299 298 297 297 296 296 296 296 296 297 297 297 297 298 299 299 300 301
314 315 315 315 316 314 312 313 314 314 312 311 309 310 313 312 310 310 310 310 309 307 306 307 307 306 305 304 304 303 303 302 301 301 300 301 302 303 303 302 303 303 303 303 303 303 303 303 303 302 302 301 301 301 301 301 301 300 300 299 300 300 300 301 300 300 299 298 297 297 296 296 295 295 295 294 295 295 295 295 295 296 297 298 299 300
316 316 316 315 315 314 312 313 313 312 311 308 307 309 311 309 308 309 310 309 306 304 304 304 304 303 302 302 301 300 300 299 298 297 296 298 299 299 299 299 300 300 300 300 301 301 301 301 301 301 300 300 299 299 299 299 299 298 298 298 298 298 299 299 299 298 297 296 295 294 293 293 293 293 293 293 293 292 292 293 293 294 295 297 298 298
316 316 316 315 314 314 313 312 312 311 309 305 305 308 309 308 307 308 307 306 303 301 302 303 302 301 301 300 300 299 299 298 297 296 295 296 298 297 296 297 297 298 298 298 298 299 299 299 298 298 298 297 297 297 297 297 297 296 296 296 296 297 297 297 297 296 296 294 293 291 290 290 291 291 291 291 291 291 290 291 291 293 294 295 296 297
317 316 317 316 314 314 313 312 310 309 307 304 304 307 308 307 306 306 305 305 302 300 299 300 299 299 298 298 298 298 297 297 296 295 295 296 296 296 295 296 296 296 296 297 297 297 296 296 296 296 295 295 295 295 295 295 295 295 295 295 295 295 295 295 295 295 295 294 292 291 289 288 289 289 290 290 290 290 290 290 291 292 293 294 295 296
317 317 317 316 315 314 313 312 311 311 310 307 307 307 306 305 304 303 303 303 302 300 299 298 297 297 297 296 296 296 296 296 295 295 296 296 297 296 296 296 296 296 297 297 297 297 296 296 296 295 295 294 293 293 293 293 293 293 293 293 293 293 293 293 293 292 293 293 291 289 288 287 287 288 289 290 290 289 289 289 290 290 291 292 293 295
319 319 318 318 317 316 314 314 314 313 312 310 308 308 307 307 307 305 305 305 304 302 301 300 298 298 297 297 297 297 297 297 297 298 298 299 299 298 298 298 297 297 297 297 297 297 297 297 297 296 295 294 293 293 292 292 291 291 291 291 290 290 290 290 290 290 290 290 289 287 285 284 284 286 287 288 289 288 288 288 288 289 290 291 292 295
322 323 322 321 321 320 318 318 317 315 314 312 311 311 311 310 309 307 308 308 307 306 306 305 304 303 303 303 302 302 302 302 301 301 301 301 300 299 299 298 298 297 297 297 297 296 297 297 297 296 295 295 294 294 293 292 292 291 291 290 289 289 289 288 288 289 289 288 287 286 283 282 283 284 286 287 288 288 288 287 287 288 288 290 292 294
325 325 324 324 323 322 321 320 320 318 317 315 313 312 312 311 309 308 308 309 309 309 309 309 309 308 308 307 307 307 306 306 306 305 304 303 303 302 301 300 300 299 299 298 298 297 297 297 297 296 296 296 296 295 295 294 294 293 292 291 290 290 289 288 288 288 287 286 284 283 282 281 281 282 284 286 287 287 287 287 287 287 288 290 292 293
327 327 328 327 326 324 323 321 320 320 319 317 314 313 313 312 311 310 311 311 311 311 311 311 310 310 310 310 310 310 310 310 310 309 309 307 307 306 306 305 305 304 303 302 301 300 300 299 298 297 297 297 297 296 296 295 294 293 292 291 291 290 290 289 288 287 286 285 284 282 281 280 280 281 282 284 285 285 286 286 286 287 287 289 290 292
331 331 332 331 328 326 326 324 322 322 321 319 319 318 318 318 317 316 316 316 316 315 314 313 313 313 313 313 313 313 313 312 312 312 312 311 310 310 310 309 308 308 307 306 304 303 302 301 299 298 297 296 296 296 295 294 293 292 291 291 291 291 290 289 287 285 284 284 283 282 281 280 280 281 281 283 284 284 284 284 285 286 287 288 289 291
335 334 334 334 331 330 329 328 327 327 326 325 325 325 324 323 322 320 319 319 318 318 317 317 317 317 316 316 315 315 314 314 314 314 313 313 312 312 311 310 310 309 308 308 307 305 304 303 301 300 298 296 295 295 294 293 292 292 291 291 291 291 292 291 288 285 283 282 281 280 279 279 279 279 280 281 282 282 282 283 284 285 286 287 289 290
337 336 336 336 334 333 333 332 331 332 331 330 329 327 326 325 324 322 321 321 321 320 319 319 319 318 317 316 316 316 315 314 314 314 313 312 311 311 311 310 309 309 308 308 308 306 306 305 304 302 300 298 297 296 295 293 292 292 292 292 293 294 294 293 290 287 284 282 280 278 277 277 277 276 277 278 280 280 280 281 282 283 285 286 288 289
338 337 337 337 336 335 335 334 334 334 333 332 331 329 327 326 325 324 323 322 322 321 320 318 318 317 316 316 315 315 314 313 313 312 311 311 311 311 310 309 308 308 308 308 308 307 307 307 307 305 304 302 301 300 298 296 295 295 295 295 295 295 294 292 290 287 283 280 278 276 275 275 274 274 274 275 277 278 278 280 281 282 284 285 286 288
340 339 338 337 337 336 336 336 335 335 334 332 331 330 328 327 326 325 323 322 322 321 320 318 317 316 316 315 314 313 312 312 312 311 311 311 311 310 310 309 309 308 308 308 308 307 308 308 308 307 306 305 304 303 301 299 298 299 298 298 296 294 292 290 287 283 280 276 274 272 271 271 271 270 271 272 274 275 277 278 280 281 283 284 285 286
341 340 339 338 338 336 336 335 335 335 333 332 330 329 328 327 326 325 324 322 321 320 319 318 317 317 316 315 314 313 313 313 312 312 312 312 312 312 311 311 310 310 309 309 309 309 309 309 309 308 308 307 306 304 302 300 300 301 300 299 297 295 292 288 284 280 277 274 271 268 267 267 267 267 268 269 271 273 275 276 278 280 281 282 284 285
342 341 340 339 338 336 335 334 334 334 334 331 329 328 327 326 325 325 324 322 320 319 318 317 317 317 316 316 315 314 314 314 314 313 313 313 313 313 313 313 313 312 311 311 311 310 310 310 309 309 308 307 305 303 302 302 302 302 300 299 297 295 291 286 281 278 275 272 270 268 267 266 266 265 265 267 268 271 272 274 276 278 279 281 282 284
342 341 339 338 337 336 335 334 333 333 333 331 329 327 325 323 322 322 321 319 317 317 316 317 317 316 316 316 315 315 315 315 314 314 315 315 315 315 315 315 315 314 313 313 312 312 311 311 310 309 308 306 304 303 303 303 302 301 299 298 296 293 289 285 281 277 273 271 269 268 267 267 266 265 265 266 267 268 270 272 274 276 278 280 282 284
342 341 339 338 337 335 334 333 331 330 329 327 326 325 323 321 320 319 318 317 316 316 316 317 317 317 317 317 317 316 316 316 316 316 317 317 316 316 316 316 316 316 315 315 314 314 313 312 311 310 309 308 306 305 304 303 301 300 299 297 294 290 287 285 281 276 271 269 268 268 267 267 266 265 265 266 267 268 269 270 273 275 277 279 281 284
341 340 339 337 336 335 334 333 331 330 329 328 328 328 326 324 322 321 320 319 320 320 320 319 320 320 321 321 319 318 318 318 317 318 318 317 317 317 317 317 317 318 318 317 317 317 316 315 314 313 312 311 310 308 305 302 300 299 298 296 292 289 287 285 282 276 270 268 268 268 268 268 267 265 266 267 269 269 270 271 273 274 276 279 281 284
342 340 339 337 336 335 335 334 334 333 332 332 331 330 329 326 325 324 324 324 325 325 324 324 324 324 324 322 321 320 320 319 319 318 318 318 318 319 320 320 320 321 320 320 319 318 317 316 315 315 314 313 311 309 305 303 301 300 298 295 292 290 288 286 281 276 272 270 270 270 270 270 268 267 267 268 270 271 271 272 272 274 276 279 281 284